Regional Weather Roundup
Issued by NWS

Home | Current Version | Previous Version | Graphics & Text | Print | Product List | Glossary On
Versions: 1 2 3 4 5 6 7 8 9 10 11 12 13 14 15 16 17 18 19 20 21 22 23 24 25 26 27 28 29 30 31 32 33 34 35 36 37 38 39 40 41 42 43 44 45 46 47 48 49 50
000
ASUS43 KIND 231159
RWRIN

WEATHER ROUNDUP FOR INDIANA
NATIONAL WEATHER SERVICE INDIANAPOLIS IN
800 AM EDT SAT MAY 23 2015

NOTE: "FAIR" INDICATES FEW OR NO CLOUDS BELOW 12,000 FEET WITH NO
SIGNIFICANT WEATHER AND/OR OBSTRUCTIONS TO VISIBILITY.

* - STATION DOES NOT REPORT WEATHER SUCH AS PRECIPITATION OR FOG.

+ - STATION NOT QUALITY CONTROLLED BY THE NATIONAL WEATHER SERVICE.
    USE DATA WITH CAUTION...ESPECIALLY DEWPOINT AND RELATIVE
    HUMIDITY OBSERVATIONS.

INZ001>003-010>013-019-020-231300-
NORTHWEST INDIANA

CITY           SKY/WX    TMP DP  RH WIND       PRES   REMARKS
GARY /AIRPORT/ MOSUNNY   55  36  47 SE8       30.35R
RENSSELAER +   PTSUNNY   54  37  54 E6        30.36R

$$

LMZ046-743>745-231300-
SOUTHERN LAKE MICHIGAN

STATION/POSITION TIME  TEMP    WIND        PRES    WAVE
                       AIR SEA DIR/SP/G            HT
                 (UTC) (F)     (DEG/KT/KT) (MB)    (FT)
BURNS HARBOR     1100   57     140/ 11/ 17 1027.8R
MICHIGAN CITY    1100   54     120/ 10/ 12   N/A
5NW MICH CITY    1100   54 51  150/ 10/ 10   N/A     1

$$

INZ004-005-014>016-021>024-231300-
NORTH CENTRAL INDIANA

CITY           SKY/WX    TMP DP  RH WIND       PRES   REMARKS
GOSHEN         SUNNY     51  41  68 CALM      30.37R
6HR MIN TEMP:  39; 6HR MAX TEMP:  51;

SOUTH BEND     SUNNY     53  36  52 CALM      30.38R
6HR MIN TEMP:  44; 6HR MAX TEMP:  53;


$$

INZ006>009-017-018-025>027-231300-
NORTHEAST INDIANA

CITY           SKY/WX    TMP DP  RH WIND       PRES   REMARKS
ANGOLA *+        N/A     46  43  87 CALM      30.38R
FORT WAYNE     PTSUNNY   53  40  61 E5        30.38R
6HR MIN TEMP:  43; 6HR MAX TEMP:  54;


$$

INZ028-029-035-036-043>045-051>053-231300-
WEST CENTRAL INDIANA

CITY           SKY/WX    TMP DP  RH WIND       PRES   REMARKS
CRAWFORDSVL +  PTSUNNY   56  37  48 E3        30.35R
6HR MIN TEMP:  53; 6HR MAX TEMP:  58;

GREENCASTLE +  CLOUDY    55  43  62 CALM      30.36R
LAFAYETTE      MOSUNNY   57  43  59 SE3       30.35R
6HR MIN TEMP:  49; 6HR MAX TEMP:  57;

TERRE HAUTE    PTSUNNY   59  53  80 SE3       30.34R
6HR MIN TEMP:  57; 6HR MAX TEMP:  62;


$$

INZ030>032-037>040-046>048-054>057-064-065-231300-
CENTRAL INDIANA

CITY           SKY/WX    TMP DP  RH WIND       PRES   REMARKS
GREENWOOD *+   PTSUNNY   57  43  58 E3        30.37R
INDIANAPOLIS   PTSUNNY   59  41  51 E7        30.34R
6HR MIN TEMP:  55; 6HR MAX TEMP:  60;

-EAGLE CREEK   PTSUNNY   58  42  55 CALM      30.35R
6HR MIN TEMP:  56; 6HR MAX TEMP:  59;

KOKOMO *+      MOSUNNY   54  41  62 SE3       30.37R
6HR MIN TEMP:  48; 6HR MAX TEMP:  54;

MT COMFORT *+  PTSUNNY   57  34  41 CALM      30.36R
SHELBYVILLE    PTSUNNY   60  46  59 E3        30.35R
6HR MIN TEMP:  56; 6HR MAX TEMP:  60;


$$

INZ033-034-041-042-049-050-058-059-231300-
EAST CENTRAL INDIANA

CITY           SKY/WX    TMP DP  RH WIND       PRES   REMARKS
MUNCIE         PTSUNNY   55  44  66 CALM      30.37R
6HR MIN TEMP:  48; 6HR MAX TEMP:  55;


$$

INZ060-061-067>069-081>083-085>088-231300-
SOUTHWEST INDIANA

CITY           SKY/WX    TMP DP  RH WIND       PRES   REMARKS
EVANSVILLE     PTSUNNY   60  57  89 CALM      30.35R
6HR MIN TEMP:  58; 6HR MAX TEMP:  61;

HUNTINGBURG *+ CLOUDY    57  52  82 S3        30.36R
6HR MIN TEMP:  54; 6HR MAX TEMP:  57;


$$

INZ062-063-066-070>080-084-089>092-231300-
SOUTH CENTRAL AND SOUTHEAST INDIANA

CITY           SKY/WX    TMP DP  RH WIND       PRES   REMARKS
BLOOMINGTON    CLOUDY    58  54  86 CALM      30.35R
6HR MIN TEMP:  53; 6HR MAX TEMP:  58;

MADISON *+     CLOUDY    55  52  88 CALM      30.38R
SEYMOUR +      CLOUDY    57  54  88 S3        30.35R

$$




USA.gov is the U.S. government's official web portal to all federal, state and local government web resources and services.